Location: Newark
(48.5667°N, 7.8167°E)
Time: 21:19:35
(UTC+00:00)

CAS-4B - Visible Passes

Search period start: 03 July 2020 00:00
Search period end: 13 July 2020 00:00
Orbit: 530 x 543 km, 43.0° (Epoch: 03 July)

Date Brightness Start Highest point End Pass type
(mag) Time Alt. Az. Time Alt. Az. Time Alt. Az.
08 Jul ? 01:18:57 10° SSE 01:19:00 10° SE 01:19:18 10° SE visible
08 Jul ? 02:54:48 10° SW 02:58:17 27° SSE 03:01:46 10° ESE visible
09 Jul ? 01:08:51 12° SE 01:08:51 12° SE 01:10:17 10° ESE visible
09 Jul ? 02:44:18 10° SW 02:47:54 30° SSE 02:51:29 10° ESE visible
10 Jul ? 00:58:45 14° SE 00:58:45 14° SE 01:00:26 10° ESE visible
10 Jul ? 02:34:04 11° SW 02:37:31 32° SSE 02:41:12 10° ESE visible
11 Jul ? 00:48:37 16° SE 00:48:37 16° SE 00:50:24 10° ESE visible
11 Jul ? 02:23:57 13° SW 02:27:09 35° S 02:30:53 10° ESE visible
12 Jul ? 00:38:30 17° SE 00:38:30 17° SE 00:40:16 10° ESE visible
12 Jul ? 02:13:50 15° SW 02:16:47 36° S 02:20:33 10° ESE visible
